User: anonymous
Location: Unspecified
(0.0000°N, 0.0000°E)
Time: 20:16:54
(UTC+02:00)
Language:

Timation 2 Rocket - Orbit

View from above orbital plane
View from above orbital plane
View from above satellite
View from above satellite

Ground track
Ground track

The orbit data is extracted from the following two-line orbital elements,

1 04159U 69082AB  14273.47313185  .00000047  00000-0  10129-3 0  7101
2 04159 069.9652 035.8141 0117852 243.4725 115.4246 13.72248981252154
Epoch (UTC): 30 September 2014 11:21:18
Eccentricity: 0.0117852
inclination: 69.9652°
perigee height: 904 km
apogee height: 1078 km
right ascension of ascending node: 35.8141°
argument of perigee: 243.4725°
revolutions per day: 13.72248981
mean anomaly at epoch: 115.4246°
orbit number at epoch: 25215

The dashed part of the orbit path shows where the satellite is in the earth's shadow,  

DLR